Location: Unspecified
(0.0000°N, 0.0000°E)
Time: 19:37:13
(UTC+00:00)

Vanguard 1 Rocket - Visible Passes

Search period start: 31 July 2021 00:00
Search period end: 10 August 2021 00:00
Orbit: 650 x 4226 km, 34.3° (Epoch: 31 July)

Date Brightness Start Highest point End Pass type
(mag) Time Alt. Az. Time Alt. Az. Time Alt. Az.
31 Jul 11.1 02:48:11 22° S 02:55:04 25° SSE 03:14:17 10° ESE visible
31 Jul 11.0 05:07:02 10° SW 05:30:57 60° SE 05:54:20 10° ENE visible
31 Jul 9.1 20:28:57 10° WSW 20:31:38 20° SW 20:31:38 20° SW visible
01 Aug 11.3 01:40:58 16° SSE 01:40:58 16° SSE 01:51:05 10° SE visible
01 Aug 11.0 03:58:16 19° SSW 04:14:46 43° SE 04:38:22 10° E visible
01 Aug 7.7 19:17:11 10° WNW 19:21:22 42° SSW 19:24:35 21° SSE visible
02 Aug 10.9 02:51:05 25° S 02:58:41 30° SSE 03:19:34 10° E visible
02 Aug 10.9 05:09:26 10° SW 05:33:28 70° SE 05:57:32 10° ENE visible
02 Aug 9.6 20:33:51 10° SW 20:34:51 12° SW 20:34:51 12° SW visible
03 Aug 11.2 01:43:56 19° SSE 01:43:56 19° SSE 01:57:18 10° ESE visible
03 Aug 10.9 04:01:13 21° SSW 04:17:33 52° SE 04:42:10 10° ENE visible
03 Aug 8.6 19:20:59 10° W 19:24:38 24° SSW 19:27:49 15° SSE visible
04 Aug 10.8 02:54:05 29° S 03:01:52 36° SE 03:24:19 10° E visible
04 Aug 10.8 05:11:57 10° SW 05:35:52 82° SE 06:00:27 10° NE visible
05 Aug 11.1 01:47:00 23° SE 01:47:00 23° SE 02:03:14 10° ESE visible
05 Aug 10.8 04:04:18 24° SSW 04:20:05 61° SE 04:45:34 10° ENE visible
05 Aug 9.2 19:25:35 10° WSW 19:27:59 14° SSW 19:30:42 10° S visible
06 Aug 10.6 02:57:13 35° S 03:04:44 43° SE 03:28:31 10° ENE visible
06 Aug 10.7 05:14:37 10° SW 05:38:11 87° NW 06:03:09 10° NE visible
07 Aug 10.9 01:50:10 28° SE 01:50:10 28° SE 02:08:37 10° E visible
07 Aug 10.6 04:07:29 28° SW 04:22:29 72° SE 04:48:37 10° ENE visible
08 Aug 11.5 00:43:08 12° ESE 00:43:08 12° ESE 00:45:23 10° ESE visible
08 Aug 10.4 03:00:26 42° S 03:07:19 51° SE 03:32:14 10° ENE visible
08 Aug 10.7 05:17:44 11° WSW 05:40:34 75° NW 06:05:40 10° NE visible
09 Aug 10.8 01:53:25 34° SE 01:53:25 34° SE 02:13:23 10° E visible
09 Aug 10.5 04:10:43 31° SW 04:24:50 83° SE 04:51:24 10° NE visible
